Kezdőlap
METAR-TAF:

METAR-TAF

Repülőterek :

Macomb Municipal Airport

Macomb, Illinois, Amerikai Egyesült Államok

földrajzi szélesség: 40-31-13N, földrajzi hosszúság: 090-39-09W, magasság: 216 m

Jelenlegi meteorológiai megfigyelések

A jelentés 19 perccel ezelõtt készült, 16:15 UTC
Nyugat-délnyugati szél 8 kt
Hőmérséklet 28°C
Páratartalom 45%
Légköri nyomás 1023 hPa
Derült ég

METAR: KMQB 291615Z AUTO 25008KT CLR 28/15 A3021 RMK AO2 T02760152 PWINO

Idő: 11:34 (16:34 UTC)


TAF: hiányzik

Meteorológiai megfigyelések és előrejelzések több, mint 4000 repülőtéren (METAR és TAF jelentéseket).

A térképen piros és sárga pontok jelzik az elérhető meteorológiai állomásokat.

Mozgassa az egeret a pont fölött, hogy megjelenjen az állomás neve.

Azután kattintson az időjárási megfigyelések és előrejelzések megtekintéséhez.

A térkép megváltoztatása: kattintson a fekete keresztel jelölt zöld gombra ráközelítéshez, a vonallal jelölt zöld gombra távolításhoz, vagy a zöld nyilakra a szomszédos térképek eléréséhez.


METAR-TAF: